[[{"header":{"parameterUnit":"m.s-1","parameterCategory":1,"la1":30.2991,"la2":30.254,"lo1":-89.0895,"lo2":-89.0444,"dy":0.0017,"dx":0.0017,"nx":28,"ny":28,"refTime":"2023-03-19T21:00:00:Z","depth":0,"parameterNumber":2,"parameterNumberName":"U-component_of_WINDS"},"data":[0,0,0,0,0,0,0,0,0,0,0,0,0,0,0,0,0,0,0,0,0,0,0,0,0,0,0,0,0,0,0,0,0,0,0,0,0,0,0,0,0,0,0,0,0,0,0,0,0,0,0,0,0,0,0,0,0,0,-4.125,-4.125,0,-4.1291,-4.1292,-4.1292,-4.1181,-4.1177,-4.1174,-4.1171,-4.1213,-4.1218,-4.1222,0,0,0,0,0,0,0,0,0,0,0,0,0,-4.1074,-4.1078,-4.125,-4.125,-4.1251,-4.1291,-4.1292,-4.1292,-4.1181,-4.1177,-4.1173,-4.1169,-4.1212,-4.1217,-4.1222,0,0,0,0,0,0,0,0,0,0,0,0,0,-4.1136,-4.1079,-4.125,-4.12,-4.1196,-4.1291,-4.1292,-4.1292,-4.1182,-4.1177,-4.1172,-4.1167,-4.121,-4.1217,-4.1223,-4.1368,0,0,-4.1243,-4.1246,0,0,0,0,0,0,0,0,-4.1133,-4.1143,-4.1207,-4.1204,-4.12,-4.1225,-4.1245,-4.1318,-4.1184,-4.1188,-4.1171,-4.1165,-4.1222,-4.1227,-4.1246,-4.137,-4.1371,-4.1244,-4.1248,-4.1251,-4.1252,0,0,0,0,0,0,0,-4.1129,-4.114,-4.1266,-4.1208,-4.1204,-4.1176,-4.1179,-4.1258,-4.1233,-4.1187,-4.1179,-4.1185,-4.1219,-4.124,-4.1246,-4.1372,-4.1244,-4.1249,-4.1253,-4.1256,-4.1613,-4.1619,0,0,0,0,0,0,-4.1131,-4.1138,-4.1265,-4.1267,-4.1153,-4.1183,-4.1187,-4.1222,-4.1232,-4.1229,-4.119,-4.118,-4.1231,-4.1239,-4.1247,-4.1415,-4.125,-4.1257,-4.126,-4.1608,-4.1615,-4.1621,0,0,0,0,0,0,-4.1127,-4.1143,-4.1263,-4.12,-4.1213,-4.1192,-4.1233,-4.1226,-4.1247,-4.1234,-4.1229,-4.1216,-4.1228,-4.1238,-4.1338,-4.1415,-4.126,-4.1266,-4.1601,-4.161,-4.1618,-4.1752,0,0,0,0,0,0,-4.1123,-4.1143,-4.1197,-4.1202,-4.1217,-4.1353,-4.1238,-4.1231,-4.1259,-4.1246,-4.1258,-4.1255,-4.1224,-4.1329,-4.1344,-4.1421,-4.1271,-4.1594,-4.1605,-4.1615,-4.1741,-4.1764,-4.1784,0,0,0,0,0,-4.1117,-4.1234,-4.1201,-4.1217,-4.1285,-4.1358,-4.1366,-4.1329,-4.1266,-4.132,-4.1311,-4.1254,-4.1405,-4.134,-4.1357,-4.1436,-4.1589,-4.1602,-4.1614,-4.1731,-4.176,-4.1784,0,0,0,0,0,0,-4.1239,-4.1234,-4.1197,-4.1319,-4.134,-4.1339,-4.1407,-4.1361,-4.14,-4.1387,-4.1339,-4.1342,-4.1451,-4.1454,-4.1382,-4.1575,-4.1486,-4.1502,-4.1569,-4.1596,-4.1617,-4.1613,-4.1276,0,0,0,0,0,-4.128,-4.134,-4.1332,-4.1441,-4.1453,-4.1429,-4.1459,-4.1428,-4.1448,-4.1456,-4.1455,-4.1476,-4.1527,-4.1562,-4.1609,-4.1742,-4.1741,-4.1805,-4.1826,-4.1844,-4.1858,-4.1926,-4.1953,-4.1662,-4.1662,-4.1661,0,0,-4.1366,-4.1371,-4.1411,-4.1466,-4.1478,-4.154,-4.1437,-4.1507,-4.1552,-4.1467,-4.156,-4.156,-4.158,-4.1696,-4.1748,-4.1702,-4.1939,-4.186,-4.1875,-4.1879,-4.1942,-4.1969,-4.1994,-4.167,-4.1669,-4.1667,0,0,-4.1553,-4.1564,-4.1654,-4.1668,-4.1688,-4.1671,-4.1693,-4.1699,-4.1696,-4.1789,-4.1725,-4.1779,-4.1869,-4.1885,-4.1906,-4.2099,-4.2047,-4.2116,-4.2228,-4.2295,-4.2318,-4.2338,-4.2404,-4.2429,-4.213,-4.2131,-4.2131,0,-4.1656,-4.1747,-4.1706,-4.1781,-4.1806,-4.1731,-4.1822,-4.1838,-4.1873,-4.1891,-4.1841,-4.1951,-4.196,-4.2078,-4.2125,-4.2145,-4.2167,-4.2113,-4.2318,-4.2338,-4.2356,-4.2418,-4.2444,-4.2139,-4.2138,-4.2137,-4.2136,0,-4.1873,-4.1937,-4.2008,-4.2042,-4.2075,-4.2158,-4.2129,-4.2168,-4.2135,-4.2123,-4.2217,-4.2225,-4.2271,-4.2298,-4.2267,-4.2411,-4.2382,-4.2326,-4.2234,-4.2392,-4.245,-4.2474,-4.215,-4.2147,-4.2145,-4.2143,0,0,-4.2136,-4.2147,-4.2173,-4.2187,-4.2203,-4.2252,-4.2331,-4.2376,-4.2409,-4.2436,-4.2499,-4.2578,-4.2525,-4.2548,-4.2518,-4.2577,-4.2727,-4.2513,-4.2513,-4.255,-4.2883,-4.2923,-4.2952,-4.2694,-4.2698,-4.2702,-4.2881,0,-4.2318,-4.2452,-4.2417,-4.2551,-4.2608,-4.2539,-4.2607,-4.2625,-4.2616,-4.2663,-4.2654,-4.2709,-4.2637,-4.265,-4.2705,-4.2697,-4.2792,-4.2684,-4.275,-4.2753,-4.2744,-4.2983,-4.3025,-4.3194,-4.2903,-4.2907,-4.291,0,-4.2548,-4.2582,-4.2721,-4.2727,-4.275,-4.2812,-4.2849,-4.2896,-4.2914,-4.2904,-4.293,-4.2888,-4.2965,-4.2875,-4.2979,-4.2906,-4.2932,-4.2932,-4.2937,-4.294,-4.2839,-4.2989,-4.3247,-4.3271,-4.2946,-4.2943,-4.294,0,-4.2722,-4.2804,-4.2897,-4.2911,-4.2921,-4.2966,-4.2972,-4.2985,-4.3014,-4.3047,-4.3065,-4.3108,-4.313,-4.3164,-4.3134,-4.3072,-4.3242,-4.3151,-4.3234,-4.3235,-4.327,-4.3268,-4.3534,-4.3293,-4.3292,-4.3292,-4.3291,0,-4.2927,-4.3014,-4.2975,-4.3032,-4.3127,-4.3087,-4.3182,-4.318,-4.3193,-4.3247,-4.3191,-4.3244,-4.3203,-4.3252,-4.323,-4.3318,-4.333,-4.3322,-4.3314,-4.3325,-4.3326,-4.3339,-4.3325,-4.3299,-4.3297,-4.3296,-4.3295,0,-4.3136,-4.3114,-4.321,-4.3212,-4.3214,-4.3284,-4.3285,-4.3337,-4.3325,-4.3395,-4.3409,-4.3389,-4.3444,-4.3419,-4.3477,-4.3461,-4.3574,-4.3553,-4.3568,-4.3561,-4.3644,-4.3636,-4.3925,-4.396,-4.37,-4.3703,-4.3705,0,-4.3267,-4.3332,-4.334,-4.3373,-4.3383,-4.3436,-4.3465,-4.3428,-4.3461,-4.3486,-4.3535,-4.3585,-4.3622,-4.3713,-4.3704,-4.3747,-4.3724,-4.3823,-4.373,-4.3738,-4.3722,-4.3717,-4.3722,-4.384,-4.3843,-4.3846,-4.3848,0,-4.35,-4.3486,-4.3529,-4.3569,-4.3605,-4.3635,-4.366,-4.369,-4.3654,-4.3693,-4.3748,-4.3777,-4.3836,-4.3885,-4.3923,-4.3929,-4.3882,-4.3878,-4.3899,-4.3909,-4.3913,-4.3909,-4.3615,-4.387,-4.3868,-4.3866,-4.3865,-4.3864,-4.3671,-4.3725,-4.3739,-4.3789,-4.3804,-4.3829,-4.3877,-4.3871,-4.3916,-4.396,-4.3936,-4.4,-4.4016,-4.4062,-4.4074,-4.4123,-4.4084,-4.4115,-4.4122,-4.413,-4.4139,-4.3909,-4.413,-4.413,-4.4129,-4.4128,-4.4128,0,-4.3899,-4.3904,-4.3951,-4.3987,-4.4026,-4.398,-4.4005,-4.4041,-4.4098,-4.4116,-4.4154,-4.4217,-4.4265,-4.426,-4.4303,-4.4343,-4.4323,-4.4356,-4.435,-4.4352,-4.4173,-4.4149,-4.4371,-4.4371,-4.4371,-4.4371,-4.4371,-4.4371,-4.4021,-4.4109,-4.4096,-4.419,-4.4195,-4.4257,-4.4275,-4.4297,-4.4311,-4.4383,-4.4423,-4.4419,-4.4428,-4.4471,-4.4513,-4.451,-4.4527,-4.4568,-4.4557,-4.4389,-4.4365,-4.4342,-4.4319,-4.4573,-4.4573,-4.4731,-4.4732,-4.4733]},{"header":{"parameterUnit":"m.s-1","parameterCategory":1,"la1":30.2991,"la2":30.254,"lo1":-89.0895,"lo2":-89.0444,"dy":0.0017,"dx":0.0017,"nx":28,"ny":28,"refTime":"2023-03-19T21:00:00:Z","depth":0,"parameterNumber":3,"parameterNumberName":"V-component_of_WINDS"},"data":[0,0,0,0,0,0,0,0,0,0,0,0,0,0,0,0,0,0,0,0,0,0,0,0,0,0,0,0,0,0,0,0,0,0,0,0,0,0,0,0,0,0,0,0,0,0,0,0,0,0,0,0,0,0,0,0,0,0,-0.0115,-0.0115,0,-0.0158,-0.0159,-0.0159,-0.0328,-0.0332,-0.0336,-0.034,-0.0376,-0.0373,-0.037,0,0,0,0,0,0,0,0,0,0,0,0,0,-0.0169,-0.0167,-0.0115,-0.0115,-0.0116,-0.0158,-0.0159,-0.0159,-0.0328,-0.0333,-0.0337,-0.0342,-0.0377,-0.0373,-0.037,0,0,0,0,0,0,0,0,0,0,0,0,0,-0.0172,-0.0167,-0.0115,-0.0205,-0.0214,-0.0158,-0.0159,-0.016,-0.0327,-0.0333,-0.0339,-0.0344,-0.0378,-0.0374,-0.037,-0.0227,0,0,-0.0357,-0.0356,0,0,0,0,0,0,0,0,-0.0172,-0.017,-0.0191,-0.0199,-0.0208,-0.0244,-0.0191,-0.0182,-0.0325,-0.0284,-0.034,-0.0347,-0.0327,-0.0327,-0.0322,-0.0229,-0.0231,-0.0357,-0.0355,-0.0353,-0.0352,0,0,0,0,0,0,0,-0.0171,-0.0169,-0.0132,-0.0191,-0.0202,-0.0241,-0.0248,-0.019,-0.0271,-0.0288,-0.03,-0.0303,-0.0332,-0.0326,-0.0324,-0.0231,-0.0357,-0.0353,-0.0351,-0.0349,-0.002,-0.0014,0,0,0,0,0,0,-0.0159,-0.0168,-0.013,-0.0133,-0.0204,-0.0235,-0.0243,-0.0227,-0.0273,-0.0285,-0.0298,-0.0311,-0.033,-0.0329,-0.0326,-0.016,-0.0353,-0.0349,-0.0347,-0.0027,-0.0019,-0.0012,0,0,0,0,0,0,-0.016,-0.0154,-0.0129,-0.0154,-0.0154,-0.0228,-0.0208,-0.0224,-0.0218,-0.0281,-0.0295,-0.0277,-0.0334,-0.0332,-0.0251,-0.0164,-0.0347,-0.0344,-0.0034,-0.0024,-0.0016,0.0172,0,0,0,0,0,0,-0.0161,-0.0154,-0.0102,-0.0151,-0.0152,-0.0054,-0.0203,-0.0221,-0.0212,-0.0229,-0.0265,-0.0276,-0.0339,-0.0256,-0.0246,-0.0161,-0.034,-0.0042,-0.003,-0.0019,0.0158,0.0187,0.0212,0,0,0,0,0,-0.0162,-0.0046,-0.0099,-0.0093,-0.0089,-0.0049,-0.0049,-0.0126,-0.0204,-0.0151,-0.0191,-0.0275,-0.0175,-0.0246,-0.0237,-0.0149,-0.0048,-0.0033,-0.0019,0.0146,0.0181,0.0211,0,0,0,0,0,0,0.0018,-0.0054,-0.0113,-0.0011,-0.0023,-0.0078,-0.0014,-0.0086,-0.0074,-0.009,-0.0184,-0.019,-0.0094,-0.0115,-0.0192,-0.0013,-0.0126,-0.0109,-0.0003,0.003,0.0057,0.0061,-0.0337,0,0,0,0,0,0.0069,0.0105,0.0041,0.0138,0.0134,0.0062,0.0076,0.0018,0.0003,-0.0002,-0.0037,-0.0045,-0.0016,0.0005,0.0028,0.0153,0.0145,0.0218,0.0245,0.0267,0.0284,0.0352,0.0385,0.0035,0.0034,0.0034,0,0,0.0177,0.0141,0.017,0.0173,0.0157,0.02,0.0059,0.0109,0.0141,0.0006,0.0081,0.0056,0.004,0.0144,0.0188,0.013,0.0378,0.0285,0.0304,0.0308,0.037,0.0403,0.0433,0.0044,0.0042,0.0041,0,0,0.0394,0.037,0.0449,0.0435,0.0411,0.0362,0.0381,0.0337,0.0314,0.0387,0.0287,0.0325,0.0376,0.037,0.0373,0.0589,0.0514,0.0599,0.0741,0.0808,0.0836,0.086,0.094,0.097,0.0615,0.0616,0.0616,0,0.0532,0.0589,0.05,0.0557,0.0563,0.0439,0.0521,0.0513,0.05,0.0508,0.0442,0.0505,0.0485,0.0588,0.064,0.0646,0.0668,0.0604,0.0838,0.0861,0.0883,0.0959,0.0989,0.0626,0.0625,0.0624,0.0623,0,0.0761,0.0802,0.0869,0.0857,0.087,0.0939,0.0864,0.0888,0.0828,0.0787,0.0865,0.0836,0.0853,0.0872,0.0815,0.0968,0.0933,0.0854,0.074,0.0928,0.0998,0.1026,0.0642,0.0638,0.0635,0.0632,0,0,0.1094,0.103,0.1056,0.105,0.1015,0.1047,0.1111,0.1124,0.1149,0.1144,0.1198,0.1245,0.1172,0.1176,0.1117,0.1175,0.1352,0.1089,0.1088,0.1143,0.1523,0.1585,0.162,0.1301,0.1306,0.131,0.1526,0,0.1304,0.1408,0.133,0.145,0.1489,0.1372,0.1429,0.1416,0.1379,0.1409,0.1369,0.1405,0.1303,0.1306,0.1358,0.132,0.1428,0.1303,0.1355,0.1358,0.1366,0.1656,0.1721,0.1926,0.1552,0.1556,0.156,0,0.1563,0.1567,0.1691,0.1648,0.1662,0.1714,0.1721,0.175,0.1733,0.1702,0.1707,0.1633,0.1697,0.1582,0.1671,0.1587,0.1604,0.1589,0.1595,0.16,0.1473,0.1673,0.1989,0.2022,0.1601,0.1598,0.1595,0,0.1798,0.1834,0.1913,0.1911,0.1862,0.1903,0.1885,0.1861,0.1875,0.1882,0.1891,0.1906,0.1916,0.193,0.1864,0.1785,0.1964,0.1842,0.1944,0.1946,0.1989,0.1988,0.2318,0.1994,0.1994,0.1993,0.1993,0,0.2043,0.2124,0.2018,0.2068,0.2156,0.2066,0.2157,0.2127,0.2107,0.2151,0.2051,0.2095,0.2002,0.2038,0.1986,0.207,0.2074,0.2054,0.2041,0.2066,0.2069,0.2078,0.2064,0.2001,0.1999,0.1998,0.1996,0,0.2322,0.2253,0.2333,0.2279,0.2268,0.2336,0.2292,0.2337,0.2292,0.235,0.2358,0.229,0.2327,0.226,0.2289,0.2255,0.2373,0.2335,0.2379,0.2369,0.2476,0.2468,0.2826,0.287,0.2515,0.2519,0.2522,0,0.2485,0.2544,0.2497,0.2517,0.2505,0.2539,0.2552,0.2466,0.2484,0.247,0.2518,0.2545,0.2563,0.2628,0.2583,0.2605,0.257,0.2693,0.2573,0.2597,0.2576,0.2575,0.2582,0.272,0.2724,0.2727,0.273,0,0.2782,0.2745,0.2766,0.2776,0.2793,0.2798,0.2795,0.2818,0.2727,0.2754,0.2788,0.2802,0.283,0.2861,0.2872,0.2856,0.2781,0.2768,0.2793,0.2822,0.2846,0.2838,0.245,0.2761,0.2758,0.2756,0.2754,0.2753,0.301,0.3058,0.3033,0.306,0.3048,0.3048,0.3088,0.3048,0.3075,0.309,0.3037,0.3085,0.3069,0.3075,0.3069,0.3107,0.3052,0.3089,0.3098,0.311,0.3128,0.2836,0.3108,0.3107,0.3106,0.3106,0.3105,0,0.3306,0.3283,0.3308,0.3307,0.3329,0.325,0.3244,0.3269,0.3311,0.33,0.3319,0.3361,0.339,0.3347,0.3369,0.3409,0.3375,0.3418,0.3416,0.3415,0.3174,0.3151,0.3445,0.3445,0.3445,0.3445,0.3445,0.3445,0.3462,0.354,0.3501,0.3573,0.355,0.3594,0.3598,0.3598,0.3589,0.3639,0.3662,0.3632,0.361,0.363,0.3654,0.3641,0.3656,0.3712,0.3688,0.3464,0.3431,0.34,0.3378,0.3715,0.3715,0.3926,0.3928,0.3929]}]]